Regional Weather Roundup
Issued by NWS

Home | Current Version | Previous Version | Text Only | Print | Product List | Glossary On
Versions: 1 2 3 4 5 6 7 8 9 10 11 12 13 14 15 16 17 18 19 20 21 22 23 24 25 26 27 28 29 30 31 32 33 34 35 36 37 38 39 40 41 42 43 44 45 46 47 48 49 50
000
ASCA44 KEWX 220120
RWRMX

LATIN AMERICA AND CARIBBEAN REGIONAL WEATHER ROUNDUP
NATIONAL WEATHER SERVICE AUSTIN/SAN ANTONIO TX
800 PM CDT THU SEP 21 2017

NOTE: "FAIR" INDICATED FEW OR NO CLOUDS BELOW 12,000 FEET WITH NO
SIGNIFICANT WEATHER AND/OR OBSTRUCTIONS TO VISIBILITY.

BAJA CALIFORNIA

CITY           SKY/WX    TMP DP  RH WIND       PRES   REMARKS
LORETO         CLEAR     91  73  55 CALM      29.70S HX 100
LA PAZ         CLEAR     88  66  48 SW12      29.75S HX  90
MEXICALI       CLEAR     82  46  28 W24       29.66S BLWGDUST
S.J. DEL CABO  PTCLDY    86  66  51 E8        29.76S
TIJUANA        PTCLDY    68  52  56 W10       29.88S

NORTHWESTERN MEXICO

CITY           SKY/WX    TMP DP  RH WIND       PRES   REMARKS
CULIACAN       PTCLDY    90  79  70 W13       29.69S HX 105
DURANGO        LGT RAIN  64  59  82 W6        30.13R
GUAYMAS        CLEAR     91  68  46 SW8       29.67S HX  95
HERMOSILLO     CLEAR     93  57  29 SW12      29.74S HX  92
CD. JUAREZ     PTCLDY    88  45  22 S7        29.89F
LOS MOCHIS     CLEAR     90  70  51 W13       29.71F HX  95
OBREGON        CLEAR     93  61  33 SW13      29.68R HX  93

NORTHEASTERN MEXICO

CITY           SKY/WX    TMP DP  RH WIND       PRES   REMARKS
CHIHUAHUA      PTCLDY    82  54  36 E7        29.95S
MATAMOROS      MOCLDY    84  77  79 SE16      29.84S HX  94
MONCLOVA         N/A    N/A N/A N/A MISG        N/A
MONTERREY      MOCLDY    90  64  43 S10       29.80R HX  91
NUEVO LAREDO   PTCLDY    90  72  55 E17       29.81R HX  96
PIEDRAS NEGRAS   N/A    N/A N/A N/A MISG        N/A
REYNOSA        MOCLDY    84  68  58 SE12G23   29.82R
SALTILLO         N/A    N/A N/A N/A MISG        N/A
TORREON        MOCLDY    90  59  35 N2        29.90S
CD. VICTORIA   PTCLDY    86  68  54 MISG      29.83R

WESTERN MEXICO

CITY           SKY/WX    TMP DP  RH WIND       PRES   REMARKS
AGUASCALIENTES MOCLDY    72  59  64 W3        30.10S
COLIMA         CLOUDY    73  73 100 CALM      29.89F
DEL BAJIO      CLOUDY    70  61  73 N5        30.13R
GUADALAJARA    MOCLDY    73  64  73 SW3       30.02S
MANZANILLO     CLOUDY    82  77  83 CALM      29.73  HX  91
MAZATLAN       PTCLDY    88  79  74 NW8       29.73R HX 102
P. VALLARTA    CLOUDY    79  79 100 NE5       29.75R THUNDER
URUAPAN          N/A    N/A N/A N/A MISG        N/A
ZACATECAS      MOCLDY    68  48  49 CALM      30.16R

CENTRAL MEXICO

CITY           SKY/WX    TMP DP  RH WIND       PRES   REMARKS
CUERNAVACA     MOCLDY    75  66  73 W5        29.95S
MEXICO CITY    CLOUDY    68  55  64 N13       30.18R THUNDER
MORELIA        CLOUDY    68  63  83 SW3       30.07S
POZA RICA        N/A    N/A N/A N/A MISG        N/A
PUEBLA         CLOUDY    59  55  88 NW6       30.21F
QUERETARO      CLOUDY    70  57  64 NE12      30.16R
S. LUIS POTOSI CLEAR     70  50  49 E5        30.12R
TAMPICO        PTCLDY    82  77  83 E9        29.83R HX  91
TOLUCA         CLOUDY    61  55  82 S12       30.25R THUNDER

SOUTHERN MEXICO

CITY           SKY/WX    TMP DP  RH WIND       PRES   REMARKS
ACAPULCO       MOCLDY    82  75  78 CALM      29.77R
B. DE HUATULCO   N/A    N/A N/A N/A MISG        N/A
OAXACA         CLOUDY    73  59  60 E12       30.08R
P. ESCONDIDO     N/A    N/A N/A N/A MISG        N/A
VERACRUZ       MOCLDY    84  77  79 NE8       29.88R HX  94
ZIHUATANEJO    LGT RAIN  82  75  78 NE5       29.77R

YUCATAN PENINSULA

CITY           SKY/WX    TMP DP  RH WIND       PRES   REMARKS
CAMPECHE       CLEAR     88  81  79 N12       29.78R HX 105
CANCUN         PTCLDY    81  79  94 N2        29.86S
CHETUMAL       PTCLDY    84  75  74 CALM      29.84R HX  92
CD. DEL CARMEN CLOUDY   N/A N/A N/A NE12      29.82R THUNDER
COZUMEL        MOCLDY    81  77  89 CALM      29.84R
MERIDA         MOCLDY    82  75  78 NE5       29.85R
MINATITLAN     PTCLDY    84  79  84 N9        29.77R HX  96
TAPACHULA      LGT RAIN  77  75  94 E7        29.80R
TUX. GUTIERREZ MOCLDY    79  75  89 W7        29.84R
VILLAHERMOSA   PTCLDY    79  79 100 CALM      29.80S

CENTRAL AMERICA

CITY           SKY/WX    TMP DP  RH WIND       PRES   REMARKS
MANAGUA        PTCLDY    82  75  78 SE5       29.77R

CARIBBEAN

CITY           SKY/WX    TMP DP  RH WIND       PRES   REMARKS
ARUBA          PTCLDY    82  75  78 S14       29.80S
KINGSTON       PTCLDY    86  75  70 SE3       29.77R HX  95
NASSAU         PTCLDY    82  77  83 NE7       29.89R HX  91
SANTO DOMINGO  TSTM      79  77  94 SW18G35   29.68R
ST. KITTS      MOCLDY    82  77  83 E8        29.92R HX  91

$$





USA.gov is the U.S. government's official web portal to all federal, state and local government web resources and services.